Regional Weather Roundup
Issued by NWS

Home | Current Version | Previous Version | Graphics & Text | Print | Product List | Glossary Off
Versions: 1 2 3 4 5 6 7 8 9 10 11 12 13 14 15 16 17 18 19 20 21 22 23 24 25 26 27 28 29 30 31 32 33 34 35 36 37 38 39 40 41 42 43 44 45 46 47 48 49 50

000
ASUS43 KMPX 271001
RWRMN
WEATHER ROUNDUP FOR MINNESOTA
NATIONAL WEATHER SERVICE TWIN CITIES/CHANHASSEN MN
500 AM CDT WED AUG 27 2014


NOTE: "FAIR" INDICATES FEW OR NO CLOUDS BELOW 12,000 FEET WITH NO
SIGNIFICANT WEATHER AND/OR OBSTRUCTIONS TO VISIBILITY. N/A MEANS
CURRENT SKY AND/OR WEATHER CONDITIONS ARE NOT AVAILABLE.

MNZ060>063-068>070-271100-
   Twin Cities Metro

CITY           SKY/WX    TMP DP  RH WIND       PRES   REMARKS
TWIN CITIES    MOCLDY    62  57  83 NE5       30.18S
ST PAUL        CLOUDY    61  56  83 N6        30.19R
CRYSTAL        CLOUDY    61  55  81 NE3       30.18R
BLAINE         CLOUDY    61  57  88 NE6       30.19R
LAKEVILLE      MOCLDY    57  55  94 CALM      30.18S
EDEN PRAIRIE   CLOUDY    63  56  78 E3        30.17S
SOUTH ST PAUL  CLOUDY    62  55  78 CALM      30.18S
LAKE ELMO      CLOUDY    59  57  94 N3        30.20R
$$
MNZ001>005-007-008-013>017-022>024-027-028-271100-
   Northwest Minnesota

CITY           SKY/WX    TMP DP  RH WIND       PRES   REMARKS
BEMIDJI        CLEAR     44  44  99 CALM      30.19S FOG
HALLOCK        CLEAR     45  43  93 S3        30.15S FOG
ROSEAU         CLEAR     45  41  87 CALM      30.16S
WARROAD        CLEAR     46  43  87 S3        30.17S
THIEF RVR FALL CLOUDY    48  48 100 S5        30.18S VSB 1/4
CROOKSTON      FOG       48  46  93 S5        30.18S VSB 1
FOSSTON        FOG       43  41  93 CALM      30.20S VSB 1
DETROIT LAKES  CLEAR     54  54 100 CALM      30.20S
MOORHEAD       PTCLDY    55  55 100 CALM      30.19S FOG
PARK RAPIDS    CLEAR     52  51  97 CALM      30.19S
MAHNOMEN       FOG       51  50  99 CALM      30.19S VSB<1/4
$$
MNZ006-009>011-018-025>026-271100-
   North Central Minnesota

CITY           SKY/WX    TMP DP  RH WIND       PRES   REMARKS
BAUDETTE       PTCLDY    45  43  93 CALM      30.18S
FLAG ISLAND    CLOUDY    57  50  77 SW9       30.15S
INTL FALLS     CLEAR     36  35  96 CALM      30.19S
WASKISH        MOCLDY    48  46  93 CALM      30.19S
BIG FORK       CLOUDY    45  45 100 CALM      30.21R
LONGVILLE      CLEAR     46  46 100 CALM      30.19S
GRAND RAPIDS   CLEAR     45  43  93 CALM      30.20S
CRANE LAKE     CLEAR     37  36  93 CALM      30.21S
ORR            CLEAR     43  41  93 CALM      30.18S
COOK           CLOUDY    39  39 100 CALM      30.20S
WALKER         FAIR      50  50  99 CALM      30.19S
$$
MNZ012-019>021-037-271100-
   Northeast Minnesota

CITY           SKY/WX    TMP DP  RH WIND       PRES   REMARKS
DULUTH         PTCLDY    51  47  86 NW3       30.20R
ELY            CLEAR     45  45 100 CALM      30.20R
HIBBING        CLOUDY    44  42  93 CALM      30.20S
EVELETH        MOCLDY    46  45  93 CALM      30.21S
DULUTH HARBOR  MOCLDY    57  54  88 W3        30.20S
TWO HARBORS    CLEAR     48  43  81 CALM      30.18S
SILVER BAY     CLEAR     46  46 100 CALM      30.18R
GRAND MARAIS     N/A     55  49  80 N8        30.15S
G MARAIS ARPRT PTCLDY    43  39  87 NW3       30.19R
$$
MNZ029>031-032-039>041-046>048-054>057-064-271100-
   West Central Minnesota

CITY           SKY/WX    TMP DP  RH WIND       PRES   REMARKS
FERGUS FALLS   CLOUDY    59  57  94 CALM      30.19S
WHEATON        MOCLDY    54  54 100 NE3       30.21R
MORRIS         CLOUDY    59  57  94 CALM      30.18S
ALEXANDRIA     CLOUDY    58  56  93 NE3       30.21S
ELBOW LAKE     CLOUDY    58  57  97 NE3       30.19S
WADENA         CLOUDY    55  55 100 CALM      30.20R
GLENWOOD       PTCLDY    57  55  94 NE3       30.21R
APPLETON       MOCLDY    57  55  94 CALM      30.18S
BENSON         CLOUDY    57  55  94 E3        30.19F
ORTONVILLE     CLOUDY    59  55  88 CALM      30.18S
MADISON        FOG       57  55  94 CALM      30.18F VSB 3/4
WILLMAR        MOCLDY    61  57  88 E3        30.20F
$$
MNZ033>034-036-042>043-049>051-058-059-271100-
   Central Minnesota

CITY           SKY/WX    TMP DP  RH WIND       PRES   REMARKS
ST CLOUD       CLOUDY    59  55  87 CALM      30.20R
SAUK CENTRE    CLOUDY    57  55  95 CALM      30.21S
PAYNESVILLE    MOCLDY    56  55  97 N5        30.20F
AITKIN         MOCLDY    55  50  82 CALM      30.18F
PINE RIVER     CLOUDY    55  55 100 CALM      30.23R
BRAINERD       CLOUDY    56  55  97 SW3       30.20F
STAPLES        CLOUDY    55  55 100 CALM      30.20S
LONG PRAIRIE   CLOUDY    55  54  94 CALM      30.21R
LITTLE FALLS   LGT RAIN  55  54  94 CALM      30.21R
LITCHFIELD     MOCLDY    61  61 100 CALM      30.20S
BUFFALO        CLOUDY    60  56  87 NE6       30.20S
MAPLE LAKE     CLOUDY    60  58  94 CALM      30.21R
$$
MNZ037-044-045-052-053-271100-
   East Central Minnesota

CITY           SKY/WX    TMP DP  RH WIND       PRES   REMARKS
PRINCETON      MOCLDY    57  55  94 E2        30.20S
MORA           CLOUDY    54  52  94 CALM      30.22S
CAMBRIDGE      PTCLDY    57  50  77 CALM      30.19R
RUSH CITY      MOCLDY    55  53  93 CALM      30.21R
MOOSE LAKE     CLOUDY    52  52 100 CALM      30.18F
HINCKLEY       PTSUNNY   54  54 100 CALM      30.20S
CLOQUET        PTCLDY    52  48  87 CALM      30.20S
MCGREGOR       MOCLDY    52  50  93 CALM      30.20F
$$
MNZ071>073-080-081-089-090-097-098-271100-
   Southwest Minnesota

CITY           SKY/WX    TMP DP  RH WIND       PRES   REMARKS
MONTEVIDEO     PTCLDY    57  55  94 CALM      30.19F
GRANITE FALLS  MOCLDY    57  56  94 CALM      30.20S
CANBY          FOG       55  55  97 CALM      30.20S VSB 1
MARSHALL       CLEAR     57  54  88 NE5       30.17S
REDWOOD FALLS  CLEAR     60  57  89 NE3       30.18S
OLIVIA         PTCLDY    57  54  88 CALM      30.18S
PIPESTONE      PTCLDY    57  55  94 CALM      30.17S
WINDOM         CLEAR     57  55  94 CALM      30.18F
WORTHINGTON    CLEAR     55  54  94 NE3       30.19S
JACKSON        PTCLDY    55  52  88 NE3       30.19S
TRACY          CLEAR     58  56  94 CALM      30.18S
SLAYTON        CLEAR     57  56  97 CALM      30.19S
$$
MNZ065>067-074>077-082>085-091>093-271100-
   South Central Minnesota

CITY           SKY/WX    TMP DP  RH WIND       PRES   REMARKS
MANKATO        CLOUDY    64  55  72 E8        30.17F
NEW ULM        CLEAR     63  57  82 E3        30.17F
ST JAMES       PTCLDY    61  57  88 CALM      30.18F
FAIRMONT       PTCLDY    55  52  88 N3        30.18S
GLENCOE        CLOUDY    60  55  84 CALM      30.18R
FARIBAULT      MOCLDY    64  55  72 CALM      30.18F
OWATONNA       CLOUDY    63  57  82 NE5       30.18F
WASECA         CLOUDY    61  54  77 NE6       30.19F
ALBERT LEA     MOCLDY    61  57  88 CALM      30.17F
$$
MNZ078>079-086>088-094>096-271100-
   Southeast Minnesota

CITY           SKY/WX    TMP DP  RH WIND       PRES   REMARKS
ROCHESTER      CLOUDY    62  57  83 NE7       30.19F
RED WING       PTCLDY    61  55  82 CALM      30.17F
STANTON        MOCLDY    60  56  86 CALM      30.17S
DODGE CENTER   CLOUDY    61  57  88 N5        30.18F
WINONA         CLOUDY    61  59  94 NW3       30.18S
AUSTIN         MOCLDY    59  55  88 CALM      30.17F
PRESTON        MOCLDY    59  58  99 CALM      30.18F
$$
ABBREVIATIONS USED IN REMARKS
   TC - TEMPERATURES IN CELSIUS
  WCI - WIND CHILL INDEX
   HX - HEAT INDEX
  VSB - VISIBILITY
$$



USA.gov is the U.S. government's official web portal to all federal, state and local government web resources and services.